カタログに戻る

USA 224

運用中軍事SSO
NORAD 37348·PAYLOAD·🇺🇸 United States

打ち上げ Jan 20, 2011 から Vandenberg Space Force Base

Loading…

次のパス (今後24時間)

TLE

古いSource: Mike McCants

元期: Sep 18, 2024, 02:01 UTC

1 37348U 11002A   24262.08462643 0.00057000  00000-0  53026-3 0    02
2 37348  97.8772  37.0228 0503871 200.0756 159.9242 14.84682940    01

AllMySatでUSA 224をリアルタイム追跡

Download on the App Store